Wind_Speed
24 27 31 34 36 37 38 39 40 41 41 41 41 41 41 41 41 40 39 38 37 37 37 35 34 32 31 31 30 28 27 26 25 24 23 23 22 22
23 25 28 31 35 37 38 39 40 40 41 42 42 42 42 42 42 42 41 40 39 39 38 37 37 36 34 33 32 31 30 28 27 26 25 25 24 23
21 24 27 29 31 35 37 38 39 40 39 42 43 42 43 43 43 43 42 41 40 40 40 39 39 38 37 36 35 34 33 31 30 29 28 27 26 25
17 20 24 27 29 32 35 36 38 39 40 41 42 42 42 42 43 44 44 43 42 41 41 41 40 39 39 38 37 36 34 33 32 31 29 28 28 27
13 16 19 23 27 29 31 34 36 37 38 40 41 42 42 42 42 43 44 43 42 42 42 41 41 40 40 40 39 37 36 35 33 32 31 30 29 28
12 13 15 19 23 26 28 31 33 35 37 38 40 41 41 43 42 43 43 43 43 42 42 41 42 41 40 40 39 38 37 36 35 34 33 32 31 30
11 11 12 15 18 22 25 27 30 32 34 36 38 40 41 41 42 42 43 43 43 43 42 42 42 42 42 41 40 39 38 38 37 36 35 34 33 32
10 9 10 12 15 18 22 25 27 29 31 33 35 38 39 39 40 42 42 42 42 43 43 42 44 44 43 43 41 40 39 39 38 37 36 35 34 33
10 9 9 10 12 14 18 22 25 27 29 31 32 35 37 39 39 40 41 42 42 43 44 44 44 44 44 44 43 42 41 41 39 39 38 37 36 35
11 10 9 9 11 13 16 19 22 25 27 29 30 33 35 36 37 38 39 40 41 42 43 42 42 42 42 43 43 43 42 41 40 40 39 38 37 36
12 11 10 10 10 12 13 16 19 23 25 27 29 30 33 34 36 37 39 40 40 41 43 43 42 43 43 43 43 42 41 41 40 39 38 38 38 37
13 12 11 11 11 11 12 14 16 19 22 24 27 28 31 33 35 36 38 39 40 40 40 41 42 43 43 43 44 43 43 42 40 39 39 39 39 38
15 14 13 12 12 12 12 13 15 17 19 22 24 26 28 30 33 35 37 38 38 39 39 40 41 42 43 43 44 43 43 42 41 40 40 41 40 39
16 15 14 13 13 13 13 13 14 16 18 19 22 25 27 28 30 32 34 36 37 37 38 39 40 41 41 42 43 44 44 43 42 41 41 40 40 39
17 16 16 15 15 14 14 14 14 15 17 18 20 22 24 26 28 30 31 32 33 35 37 37 38 39 40 41 41 43 43 43 42 40 40 39 38 38
19 18 17 17 16 16 16 16 16 16 17 18 19 21 23 24 26 28 30 30 31 32 34 35 37 38 38 39 40 41 42 42 42 41 40 39 39 38
21 20 20 19 19 18 18 18 18 18 18 18 20 21 22 23 24 26 29 30 31 32 33 34 35 36 37 37 37 38 39 40 41 41 39 38 37 38
23 23 22 22 21 21 21 21 21 21 20 20 21 22 23 24 25 26 28 29 30 32 32 34 35 36 37 38 38 38 38 38 38 38 38 38 37 37
26 25 25 25 24 24 24 23 23 23 23 23 23 24 24 25 26 27 28 28 29 31 32 33 34 36 36 36 37 38 38 38 37 37 37 38 38 37
28 28 28 28 27 27 26 26 26 26 26 25 25 25 25 26 26 27 28 28 29 29 30 32 33 34 35 35 36 37 37 37 37 37 37 37 37 36
31 31 31 31 31 30 30 30 29 29 28 28 28 28 27 28 28 28 28 29 29 30 31 32 32 33 33 34 35 36 36 36 36 37 37 37 36 35
35 35 35 35 34 34 34 33 33 33 32 32 31 31 30 30 30 30 30 30 30 31 31 31 32 33 33 33 33 34 35 36 36 36 36 35 34 34
38 38 38 38 38 38 38 38 37 37 36 35 34 34 33 33 33 33 32 32 31 31 32 32 32 33 33 33 34 35 35 35 35 35 36 35 34 35
Wind_Direction
243 239 237 235 234 232 230 229 228 226 226 226 227 229 229 229 231 233 233 235 234 234 234 235 237 238 240 242 244 247 251 255 259 264 268 271 275 279
246 241 238 236 234 232 231 229 229 229 228 228 228 228 228 228 230 232 233 235 236 234 235 237 238 239 241 243 246 248 250 254 258 262 266 270 273 277
251 245 240 237 234 233 231 230 230 230 229 230 231 230 230 230 230 230 231 234 235 236 236 238 239 240 241 244 246 247 251 254 257 260 264 268 271 275
261 251 243 238 235 233 232 231 231 231 230 230 232 232 232 232 232 232 231 233 234 236 236 238 240 241 242 244 245 248 250 253 256 259 262 265 269 271
273 258 248 240 235 233 233 232 231 231 231 230 231 233 234 234 234 233 232 233 234 235 237 238 239 240 243 244 246 247 249 252 255 258 260 263 266 269
286 269 255 245 237 234 234 233 232 232 233 232 232 234 235 235 235 234 233 234 235 234 236 238 239 240 241 244 245 246 249 251 254 256 258 261 263 266
298 282 265 252 242 236 234 233 233 234 234 234 234 235 236 237 236 235 235 236 235 235 237 237 239 240 242 244 244 246 248 250 252 255 257 258 262 265
312 297 278 262 251 243 240 237 236 236 236 236 236 237 237 238 238 237 236 235 235 236 237 239 239 239 241 243 243 245 248 249 251 253 255 257 261 263
324 308 290 273 261 252 247 244 240 240 240 239 238 237 237 238 238 238 238 237 236 238 240 241 242 242 243 242 243 246 247 249 251 252 253 255 258 260
335 322 305 287 276 264 256 250 245 243 242 240 238 238 237 238 239 240 239 238 237 239 240 241 242 242 243 243 243 245 247 248 250 251 252 254 256 258
336 327 314 299 289 278 266 257 251 248 245 243 241 241 239 240 240 241 241 241 240 241 242 242 242 243 244 244 244 246 247 247 247 248 250 251 254 256
337 332 323 311 299 289 280 269 259 254 251 248 244 243 242 240 240 241 241 242 243 242 242 243 242 243 243 244 244 245 245 246 247 248 249 251 251 253
333 328 322 315 308 300 291 277 265 260 258 253 249 247 246 244 242 243 243 243 244 241 241 243 243 243 243 243 242 243 244 244 244 245 247 249 249 251
329 325 320 314 309 305 297 286 275 268 264 259 254 251 250 249 247 245 244 244 244 241 240 241 242 244 245 243 242 241 242 244 245 247 249 249 250 252
324 321 317 312 305 301 298 292 285 277 270 264 258 255 254 254 251 248 247 246 245 244 243 242 243 244 244 243 241 242 242 243 245 247 247 246 247 247
321 317 314 311 305 299 295 292 288 282 275 269 263 258 257 255 253 250 249 249 248 248 245 243 244 242 240 240 240 240 240 242 244 244 244 245 245 244
318 315 311 308 305 300 296 292 289 284 278 274 268 262 259 257 254 253 251 250 249 247 245 243 241 241 239 239 239 238 238 240 242 243 242 242 242 242
315 312 309 305 301 299 296 292 289 284 280 276 272 267 262 259 256 254 254 254 252 248 246 244 244 243 241 240 240 240 240 241 242 242 242 243 242 242
311 309 307 304 301 296 293 291 287 284 280 277 273 270 266 262 259 257 255 254 253 251 249 247 246 245 243 243 242 243 243 244 244 243 242 243 242 241
306 305 303 302 299 295 292 291 288 283 279 276 274 271 268 264 261 260 258 254 253 252 249 247 246 244 243 244 242 241 243 245 244 242 241 241 240 239
302 301 299 298 296 294 292 288 286 283 280 277 273 270 269 265 262 260 259 258 255 252 250 247 244 243 243 242 241 241 242 242 241 241 239 239 239 238
299 298 296 295 293 291 289 287 284 280 277 275 272 269 267 265 263 260 258 257 255 253 251 248 245 244 243 242 241 241 240 239 240 240 240 239 239 238
298 297 296 293 291 289 286 284 282 279 276 273 271 269 267 264 262 259 257 255 253 252 250 248 247 245 242 242 241 241 242 241 240 240 240 238 237 236
Height
5752 5754 5757 5760 5763 5768 5772 5777 5782 5787 5792 5796 5801 5805 5809 5814 5818 5822 5826 5830 5834 5837 5841 5845 5848 5851 5853 5855 5857 5859 5861 5862 5863 5864 5864 5864 5864 5864
5746 5747 5749 5752 5755 5759 5763 5767 5772 5778 5782 5787 5791 5796 5800 5805 5810 5814 5818 5821 5825 5829 5833 5837 5840 5843 5846 5848 5851 5853 5854 5856 5857 5858 5859 5859 5859 5859
5739 5740 5742 5744 5747 5750 5755 5759 5764 5769 5774 5778 5782 5787 5792 5797 5801 5805 5809 5813 5816 5820 5825 5828 5832 5835 5838 5841 5843 5846 5848 5849 5851 5852 5852 5853 5853 5853
5733 5734 5735 5737 5739 5743 5747 5751 5755 5760 5765 5769 5773 5778 5783 5787 5791 5796 5800 5804 5807 5811 5815 5819 5823 5826 5829 5832 5835 5838 5840 5842 5843 5845 5846 5846 5847 5847
5728 5728 5728 5730 5732 5735 5739 5743 5747 5751 5756 5761 5765 5769 5773 5778 5782 5786 5790 5795 5799 5802 5806 5810 5814 5817 5821 5824 5827 5830 5832 5834 5836 5837 5838 5839 5840 5840
5723 5723 5723 5724 5725 5728 5732 5735 5739 5743 5748 5752 5756 5760 5764 5768 5773 5777 5781 5785 5789 5793 5796 5800 5804 5808 5811 5815 5818 5821 5823 5825 5827 5829 5830 5831 5832 5833
5719 5718 5718 5719 5720 5722 5725 5729 5732 5736 5739 5743 5747 5751 5755 5759 5763 5767 5771 5775 5779 5783 5787 5791 5794 5798 5802 5805 5808 5811 5814 5816 5818 5820 5822 5823 5824 5825
5717 5716 5715 5715 5716 5718 5720 5722 5725 5728 5732 5735 5738 5742 5746 5750 5753 5757 5761 5765 5770 5774 5777 5780 5783 5788 5791 5795 5798 5801 5804 5807 5809 5811 5813 5814 5816 5816
5715 5714 5713 5713 5713 5714 5715 5717 5719 5721 5724 5727 5730 5733 5737 5740 5744 5747 5751 5754 5759 5762 5766 5770 5774 5777 5781 5784 5788 5791 5794 5796 5799 5801 5803 5805 5806 5808
5714 5712 5711 5710 5710 5710 5711 5712 5713 5715 5717 5720 5723 5725 5727 5730 5734 5738 5741 5744 5748 5751 5754 5759 5763 5767 5770 5773 5777 5780 5783 5786 5788 5791 5793 5795 5797 5798
5713 5711 5709 5708 5707 5707 5707 5707 5708 5709 5710 5712 5715 5717 5719 5722 5725 5728 5731 5734 5738 5741 5744 5748 5752 5755 5759 5762 5766 5769 5772 5775 5777 5780 5783 5785 5787 5788
5712 5710 5708 5706 5705 5704 5703 5703 5703 5704 5705 5706 5708 5710 5712 5714 5717 5720 5722 5725 5728 5731 5734 5737 5741 5744 5748 5751 5755 5758 5761 5764 5766 5769 5772 5774 5776 5778
5710 5708 5706 5704 5702 5701 5699 5699 5698 5699 5699 5700 5701 5703 5704 5707 5709 5711 5714 5716 5718 5722 5724 5727 5730 5733 5736 5740 5743 5747 5750 5753 5755 5758 5761 5763 5765 5768
5708 5706 5703 5701 5700 5698 5696 5695 5694 5694 5694 5694 5695 5697 5698 5699 5701 5703 5705 5707 5709 5712 5714 5717 5720 5723 5726 5728 5732 5735 5738 5741 5744 5747 5750 5752 5754 5756
5705 5703 5700 5698 5696 5695 5693 5692 5690 5690 5689 5689 5690 5690 5691 5692 5693 5695 5696 5698 5700 5702 5704 5707 5710 5712 5715 5718 5721 5724 5727 5730 5733 5736 5739 5742 5744 5746
5702 5699 5697 5695 5693 5691 5689 5688 5686 5685 5685 5684 5684 5684 5685 5685 5686 5687 5688 5690 5691 5693 5695 5697 5699 5702 5704 5707 5710 5713 5716 5720 5723 5725 5728 5730 5733 5736
5697 5695 5693 5690 5688 5686 5685 5683 5682 5680 5679 5679 5678 5678 5678 5679 5679 5680 5681 5682 5683 5685 5686 5688 5689 5691 5694 5696 5699 5702 5705 5709 5712 5714 5717 5720 5723 5725
5693 5690 5687 5685 5683 5681 5679 5678 5676 5675 5674 5673 5672 5672 5672 5672 5672 5673 5673 5674 5675 5676 5677 5678 5680 5682 5684 5687 5690 5692 5695 5699 5701 5704 5707 5710 5712 5715
5687 5684 5682 5679 5677 5675 5673 5671 5670 5668 5667 5666 5666 5665 5664 5664 5664 5664 5665 5665 5666 5667 5668 5669 5670 5672 5675 5677 5680 5683 5686 5688 5691 5694 5697 5700 5703 5705
5680 5677 5674 5671 5669 5667 5665 5664 5662 5661 5659 5658 5658 5657 5656 5656 5656 5656 5656 5657 5657 5658 5659 5660 5661 5663 5666 5668 5670 5673 5675 5678 5681 5684 5687 5690 5692 5695
5671 5668 5665 5663 5660 5658 5656 5654 5653 5652 5650 5649 5649 5648 5648 5648 5648 5648 5648 5648 5648 5649 5650 5651 5652 5654 5655 5658 5660 5663 5666 5668 5671 5674 5677 5680 5683 5685
5661 5658 5655 5652 5650 5647 5646 5644 5642 5641 5640 5639 5638 5638 5638 5638 5638 5638 5639 5639 5639 5640 5641 5642 5643 5644 5646 5649 5651 5653 5656 5659 5662 5664 5667 5671 5673 5676
5649 5646 5643 5640 5637 5635 5633 5631 5630 5629 5628 5627 5627 5627 5627 5627 5627 5628 5628 5629 5630 5630 5631 5632 5634 5635 5637 5640 5642 5644 5647 5649 5652 5655 5658 5661 5664 5667